TimeAEST,TemperatureF,Dew PointF,Humidity,Sea Level PressureIn,VisibilityMPH,Wind Direction,Wind SpeedMPH,Gust SpeedMPH,PrecipitationIn,Events,Conditions,WindDirDegrees,DateUTC
12:00 AM,70,64,77,30.01,,SSE,20.1,,,,,160,2013-07-17 14:00:00
12:00 AM,69.8,64.4,83,30.01,6.2,SSE,10.4,-,N/A,,Scattered Clouds,160,2013-07-17 14:00:00
12:30 AM,69.8,64.4,83,29.98,6.2,SSE,10.4,-,N/A,,Scattered Clouds,160,2013-07-17 14:30:00
1:00 AM,69.8,64.4,83,29.98,6.2,South,10.4,-,N/A,,Scattered Clouds,170,2013-07-17 15:00:00
1:30 AM,69.8,64.4,83,29.98,6.2,South,10.4,-,N/A,,Partly Cloudy,170,2013-07-17 15:30:00
2:00 AM,69.8,64.4,83,29.98,6.2,South,9.2,-,N/A,,Partly Cloudy,170,2013-07-17 16:00:00
2:30 AM,69.8,64.4,83,29.98,6.2,SSE,9.2,-,N/A,,Partly Cloudy,160,2013-07-17 16:30:00
3:00 AM,69,64,79,29.96,,South,9.2,,,,,170,2013-07-17 17:00:00
3:00 AM,69.8,64.4,83,29.95,6.2,South,9.2,-,N/A,,Scattered Clouds,170,2013-07-17 17:00:00
3:30 AM,69.8,64.4,83,29.95,6.2,SSE,10.4,-,N/A,,Partly Cloudy,160,2013-07-17 17:30:00
4:00 AM,69,64,79,29.97,,South,9.2,,,,,170,2013-07-17 18:00:00
4:00 AM,69.8,64.4,83,29.95,6.2,South,9.2,-,N/A,,Partly Cloudy,170,2013-07-17 18:00:00
4:30 AM,69.8,64.4,83,29.95,6.2,SSE,10.4,-,N/A,,Partly Cloudy,160,2013-07-17 18:30:00
5:00 AM,69.8,64.4,83,29.95,6.2,South,10.4,-,N/A,,Scattered Clouds,170,2013-07-17 19:00:00
5:30 AM,69.8,62.6,78,29.95,6.2,South,11.5,-,N/A,,Partly Cloudy,170,2013-07-17 19:30:00
6:00 AM,70,63,73,29.97,19,South,12.7,,,,Partly Cloudy,180,2013-07-17 20:00:00
6:00 AM,69.8,62.6,78,29.98,6.2,South,12.7,-,N/A,,Partly Cloudy,180,2013-07-17 20:00:00
6:30 AM,69.8,62.6,78,29.98,6.2,South,12.7,-,N/A,,Partly Cloudy,170,2013-07-17 20:30:00
7:00 AM,70,63,72,29.99,,South,11.5,,,,,180,2013-07-17 21:00:00
7:00 AM,69.8,62.6,78,29.98,6.2,South,11.5,-,N/A,,Partly Cloudy,180,2013-07-17 21:00:00
7:30 AM,69.8,62.6,78,29.98,6.2,South,11.5,-,N/A,,Partly Cloudy,180,2013-07-17 21:30:00
8:00 AM,71.6,62.6,73,29.98,6.2,South,10.4,-,N/A,,Partly Cloudy,170,2013-07-17 22:00:00
8:30 AM,73.4,62.6,69,30.01,6.2,South,10.4,-,N/A,,Partly Cloudy,170,2013-07-17 22:30:00
9:00 AM,75,64,60,30.01,19,South,10.4,,,,Partly Cloudy,170,2013-07-17 23:00:00
9:00 AM,75.2,64.4,69,30.01,6.2,South,10.4,-,N/A,,Partly Cloudy,170,2013-07-17 23:00:00
10:00 AM,77.0,64.4,65,30.01,6.2,SSE,12.7,-,N/A,,Mostly Cloudy,160,2013-07-18 00:00:00
10:30 AM,75.2,64.4,69,30.01,6.2,SSE,16.1,-,N/A,,Mostly Cloudy,150,2013-07-18 00:30:00
11:00 AM,75.2,64.4,69,30.01,6.2,SSE,15.0,-,N/A,,Mostly Cloudy,160,2013-07-18 01:00:00
11:30 AM,77.0,64.4,65,30.01,6.2,SSE,9.2,-,N/A,,Mostly Cloudy,160,2013-07-18 01:30:00
12:00 PM,75.2,66.2,73,30.01,6.2,SSE,12.7,-,N/A,,Mostly Cloudy,150,2013-07-18 02:00:00
12:30 PM,77.0,66.2,69,29.98,6.2,SSE,9.2,-,N/A,,Mostly Cloudy,160,2013-07-18 02:30:00
1:00 PM,75,66,67,29.99,,SSE,15.0,,,,,160,2013-07-18 03:00:00
1:00 PM,75.2,66.2,73,29.98,6.2,SSE,15.0,-,N/A,,Mostly Cloudy,160,2013-07-18 03:00:00
1:30 PM,75.2,68.0,78,29.95,6.2,South,11.5,-,N/A,,Mostly Cloudy,180,2013-07-18 03:30:00
2:00 PM,75.2,66.2,73,29.95,6.2,South,10.4,-,N/A,,Mostly Cloudy,190,2013-07-18 04:00:00
2:30 PM,77.0,66.2,69,29.95,6.2,South,12.7,-,N/A,,Mostly Cloudy,170,2013-07-18 04:30:00
3:00 PM,75,67,70,29.95,16,South,6.9,,,,Mostly Cloudy,180,2013-07-18 05:00:00
3:00 PM,75.2,68.0,78,29.95,6.2,South,6.9,-,N/A,,Mostly Cloudy,180,2013-07-18 05:00:00
3:30 PM,75.2,68.0,78,29.95,6.2,South,10.4,-,N/A,,Mostly Cloudy,170,2013-07-18 05:30:00
4:00 PM,76,67,68,29.95,,SSE,10.4,,,,,160,2013-07-18 06:00:00
4:00 PM,77.0,68.0,74,29.95,6.2,SSE,10.4,-,N/A,,Mostly Cloudy,160,2013-07-18 06:00:00
4:30 PM,77.0,66.2,69,29.95,6.2,SSE,15.0,-,N/A,,Mostly Cloudy,150,2013-07-18 06:30:00
5:00 PM,75.2,68.0,78,29.95,6.2,SSE,15.0,-,N/A,Rain,Light Rain Showers,150,2013-07-18 07:00:00
5:30 PM,73.4,68.0,83,29.95,6.2,South,11.5,-,N/A,,Mostly Cloudy,170,2013-07-18 07:30:00
6:00 PM,74,68,75,29.96,,SSE,10.4,,,,Overcast,160,2013-07-18 08:00:00
6:00 PM,73.4,68.0,83,29.95,5.0,SSE,10.4,-,N/A,Rain,Light Rain Showers,160,2013-07-18 08:00:00
6:30 PM,73.4,68.0,83,29.95,3.7,South,9.2,-,N/A,Rain,Light Rain Showers,170,2013-07-18 08:30:00
7:00 PM,72,69,88,29.98,,SSE,10.4,,,,,160,2013-07-18 09:00:00
7:00 PM,71.6,69.8,94,29.98,6.2,SSE,10.4,-,N/A,,Mostly Cloudy,160,2013-07-18 09:00:00
7:30 PM,71.6,69.8,94,29.98,6.2,SSE,10.4,-,N/A,,Mostly Cloudy,160,2013-07-18 09:30:00
8:00 PM,71.6,68.0,88,29.98,3.7,South,10.4,-,N/A,Rain,Light Rain Showers,170,2013-07-18 10:00:00
8:19 PM,71.6,68.0,88,30.01,6.2,SSE,9.2,-,N/A,Rain,Light Rain Showers,160,2013-07-18 10:19:00
8:30 PM,71.6,68.0,88,30.01,6.2,South,9.2,-,N/A,Rain,Light Rain Showers,170,2013-07-18 10:30:00
9:00 PM,71,69,90,30.01,,South,10.4,,,,Overcast,170,2013-07-18 11:00:00
9:00 PM,71.6,68.0,88,30.01,6.2,South,10.4,-,N/A,Rain,Light Rain Showers,170,2013-07-18 11:00:00
9:19 PM,69.8,69.8,100,30.01,3.1,South,9.2,-,N/A,Rain,Rain Showers,170,2013-07-18 11:19:00
9:30 PM,69.8,68.0,94,30.01,6.2,South,9.2,-,N/A,Rain,Light Rain Showers,180,2013-07-18 11:30:00
10:00 PM,71,68,87,30.01,,South,9.2,,,,,190,2013-07-18 12:00:00
10:00 PM,71.6,68.0,88,30.01,6.2,South,9.2,-,N/A,,Mostly Cloudy,190,2013-07-18 12:00:00
10:30 PM,71.6,68.0,88,29.98,6.2,South,9.2,-,N/A,,Scattered Clouds,190,2013-07-18 12:30:00
11:00 PM,71.6,68.0,88,29.98,6.2,South,12.7,-,N/A,,Scattered Clouds,180,2013-07-18 13:00:00
11:30 PM,71.6,68.0,88,29.98,6.2,South,12.7,-,N/A,,Scattered Clouds,180,2013-07-18 13:30:00